This demonstration page uses our WeatherBlox Daily Observations layout. Learn more.

Left ArrowRight Arrow

31.84235, -102.49876

Hourly Observations for November 7, 2015

Temp ( °F °C ) Dew Point ( °F °C ) Humidity (%) Winds ( mph kmh ) Pressure ( in mb ) Visibility ( mi km ) Precip ( " mm )
12:53 am 00:53 Clear 49 9.4 38 3.3 66 66 ENE 9 15 30.06 1018 10 16 0.00 0.00
1:53 am 01:53 Clear 47 8.3 38 3.3 71 71 NE 9 15 30.07 1018 10 16 0.00 0.00
2:53 am 02:53 Clear 46 7.8 38 3.3 73 73 NE 9 15 30.08 1019 10 16 0.00 0.00
3:53 am 03:53 Clear 46 7.8 37 2.8 71 71 NE 10 17 30.09 1019 10 16 0.00 0.00
4:53 am 04:53 Clear 45 7.2 38 3.3 77 77 NE 8 13 30.11 1020 10 16 0.00 0.00
5:53 am 05:53 Clear 44 6.7 38 3.3 79 79 NNE 9 15 30.14 1021 10 16 0.00 0.00
6:53 am 06:53 Clear 44 6.7 40 4.4 85 85 NE 9 15 30.19 1022 10 16 0.00 0.00
7:53 am 07:53 Sunny 47 8.3 43 6.1 86 86 NE 12 19 30.24 1024 10 16 0.00 0.00
8:19 am 08:19 Partly Cloudy 49 9.4 45 7.2 86 86 ENE 15 24 30.30 1026 10 16 0.00 0.00
8:28 am 08:28 Mostly Cloudy 50 10 46 7.8 86 86 ENE 14 22 30.30 1026 9 14 0.00 0.00
8:53 am 08:53 Cloudy 52 11.1 47 8.3 83 83 ENE 17 28 30.27 1025 10 16 0.00 0.00
9:24 am 09:24 Mostly Cloudy 52 11.1 45 7.2 77 77 ENE 18 30 30.36 1028 10 16 0.00 0.00
9:32 am 09:32 Partly Cloudy 53 11.7 45 7.2 74 74 ENE 21 33 30.33 1027 10 16 0.00 0.00
9:53 am 09:53 Mostly Sunny 55 12.8 46 7.8 72 72 ENE 16 26 30.29 1026 10 16 0.00 0.00
10:53 am 10:53 Mostly Sunny 58 14.4 43 6.1 58 58 ENE 18 30 30.29 1026 10 16 0.00 0.00
11:53 am 11:53 Sunny 61 16.1 42 5.6 50 50 E 16 26 30.29 1026 10 16 0.00 0.00
12:53 pm 12:53 Sunny 63 17.2 40 4.4 43 43 NE 15 24 30.26 1025 10 16 0.00 0.00
1:53 pm 13:53 Sunny 64 17.8 36 2.2 35 35 ENE 17 28 30.23 1024 10 16 0.00 0.00
2:53 pm 14:53 Partly Cloudy 65 18.3 34 1.1 32 32 E 18 30 30.22 1023 10 16 0.00 0.00
3:53 pm 15:53 Mostly Cloudy 65 18.3 34 1.1 32 32 ENE 18 30 30.22 1023 10 16 0.00 0.00
4:53 pm 16:53 Partly Cloudy 63 17.2 34 1.1 34 34 ENE 17 28 30.22 1023 10 16 0.00 0.00
5:53 pm 17:53 Cloudy 59 15 32 0 36 36 ENE 13 20 30.24 1024 10 16 0.00 0.00
6:53 pm 18:53 Cloudy 57 13.9 33 0.6 41 41 ENE 9 15 30.26 1025 10 16 0.00 0.00
7:53 pm 19:53 Mostly Cloudy 55 12.8 32 0 42 42 E 7 11 30.29 1026 10 16 0.00 0.00
8:53 pm 20:53 Mostly Cloudy 53 11.7 32 0 45 45 E 8 13 30.29 1026 10 16 0.00 0.00
9:53 pm 21:53 Cloudy 51 10.6 33 0.6 50 50 ENE 7 11 30.29 1026 10 16 0.00 0.00
10:53 pm 22:53 Partly Cloudy 50 10 33 0.6 52 52 ENE 8 13 30.29 1026 10 16 0.00 0.00
11:53 pm 23:53 Cloudy 50 10 35 1.7 57 57 NE 7 11 30.29 1026 10 16 0.00 0.00

Powered by AerisWeather